DW1289 Weather Reports


Display with metric or nautical units.
time (UTC)temp
F
wind
direction
speed
MPH
gust
MPH
rain 1hr
in
rain 24hr
in
rain mn
in
humidity
%
barometer
mb
20260504180016 79 248 6.0 16.0 0.00 0.07 0.07 48 1009.8
20260504175036 79 248 6.0 12.0 0.00 0.07 0.07 52 1009.7
20260504174056 78 248 7.0 15.0 0.00 0.07 0.07 48 1009.8
20260504173016 78 248 6.0 15.0 0.00 0.07 0.07 51 1009.7
20260504172016 77 248 7.0 14.0 0.00 0.07 0.07 52 1009.9
20260504171016 77 248 6.0 15.0 0.00 0.07 0.07 53 1009.8
20260504151016 70 248 7.0 15.0 0.00 0.07 0.07 59 1010.8
20260504141036 59 248 5.0 10.0 0.00 0.07 0.07 77 1011.0
20260504081016 55 248 4.0 8.0 0.00 0.00 0.00 70 1011.5
20260504050016 54 248 2.0 7.0 0.00 0.00 0.00 67 1013.6
20260504045016 53 225 2.0 7.0 0.00 0.00 0.00 69 1013.8
20260504044016 53 248 2.0 8.0 0.00 0.00 0.00 71 1013.7
20260504043016 52 248 3.0 8.0 0.00 0.00 0.00 72 1013.9
20260504042016 52 225 2.0 5.0 0.00 0.00 0.00 70 1013.7
20260504041016 51 248 2.0 4.0 0.00 0.00 0.00 70 1013.8
20260504040016 51 0.0 3.0 0.00 0.00 0.00 69 1013.9
20260504035016 51 0.0 0.0 0.00 0.00 0.00 69 1014.0
20260504034017 51 0.0 0.0 0.00 0.00 0.00 69 1014.2
20260504033016 51 0.0 0.0 0.00 0.00 0.00 68 1014.1
20260504032016 51 0.0 0.0 0.00 0.00 0.00 68 1014.3
20260504031016 52 0.0 0.0 0.00 0.00 0.00 68 1014.5
20260504030016 52 0.0 0.0 0.00 0.00 0.00 68 1014.5
20260504025016 52 0.0 0.0 0.00 0.00 0.00 67 1014.5
20260504024017 53 0.0 0.0 0.00 0.00 0.00 66 1014.5
20260504023017 53 0.0 0.0 0.00 0.00 0.00 65 1014.5
20260504022016 54 0.0 0.0 0.00 0.00 0.00 63 1014.5
20260504021016 54 0.0 0.0 0.00 0.00 0.00 61 1014.6
20260504020016 55 0.0 0.0 0.00 0.00 0.00 60 1014.6
20260504015016 56 0.0 0.0 0.00 0.00 0.00 58 1014.5
20260504014016 57 0.0 0.0 0.00 0.00 0.00 56 1014.5
20260504013017 57 0.0 0.0 0.00 0.00 0.00 54 1014.5
20260504012036 59 0.0 0.0 0.00 0.00 0.00 52 1014.4
20260504011017 59 0.0 0.0 0.00 0.00 0.00 50 1014.3
20260504010017 60 0.0 2.0 0.00 0.00 0.00 49 1014.1
20260504005016 61 225 2.0 4.0 0.00 0.00 0.00 48 1013.7
20260504004016 61 248 2.0 7.0 0.00 0.00 0.00 48 1013.8
20260504003016 62 248 2.0 6.0 0.00 0.00 0.00 46 1013.9
20260504002016 62 248 3.0 7.0 0.00 0.00 0.00 46 1013.7
20260504001056 63 248 4.0 11.0 0.00 0.00 0.00 46 1013.7
20260504000016 63 225 4.0 11.0 0.00 0.00 0.00 45 1013.6
20260503235016 64 248 5.0 12.0 0.00 0.00 0.00 45 1013.5
20260503234016 64 248 5.0 12.0 0.00 0.00 0.00 45 1013.6
20260503233016 64 248 5.0 13.0 0.00 0.00 0.00 44 1013.6
20260503232036 64 248 5.0 12.0 0.00 0.00 0.00 44 1013.7
20260503231036 64 248 6.0 12.0 0.00 0.00 0.00 44 1013.7
20260503230016 65 248 4.0 11.0 0.00 0.00 0.00 44 1013.9
20260503225016 65 225 4.0 10.0 0.00 0.00 0.00 43 1014.2
20260503224016 65 248 6.0 12.0 0.00 0.00 0.00 43 1014.5
20260503223016 65 248 6.0 14.0 0.00 0.00 0.00 42 1014.5
20260503222016 66 248 6.0 13.0 0.00 0.00 0.00 41 1014.9
20260503221016 66 248 5.0 15.0 0.00 0.00 0.00 40 1014.7
20260503220016 66 248 6.0 12.0 0.00 0.00 0.00 40 1014.9
20260503215016 66 248 6.0 13.0 0.00 0.00 0.00 40 1015.3
20260503214036 66 248 8.0 14.0 0.00 0.00 0.00 37 1015.3
20260503213016 67 248 7.0 17.0 0.00 0.00 0.00 38 1015.8
20260503212016 67 248 6.0 12.0 0.00 0.00 0.00 39 1015.9
20260503211016 66 248 7.0 16.0 0.00 0.00 0.00 38 1015.9
20260503210016 67 248 7.0 18.0 0.00 0.00 0.00 37 1015.6
20260503205016 66 248 6.0 12.0 0.00 0.00 0.00 38 1015.9
20260503204036 65 248 6.0 12.0 0.00 0.00 0.00 39 1016.2
20260503203037 66 248 6.0 12.0 0.00 0.00 0.00 38 1016.2
20260503202036 67 248 8.0 19.0 0.00 0.00 0.00 35 1016.4
20260503201036 67 248 6.0 13.0 0.00 0.00 0.00 41 1016.6
20260503200016 67 248 5.0 10.0 0.00 0.00 0.00 36 1016.8
20260503195016 67 248 6.0 16.0 0.00 0.00 0.00 37 1017.1
20260503194016 67 248 5.0 11.0 0.00 0.00 0.00 41 1017.4
20260503193016 67 248 6.0 13.0 0.00 0.00 0.00 36 1017.7
20260503192016 67 248 6.0 13.0 0.00 0.00 0.00 39 1017.9
20260503191056 66 248 6.0 14.0 0.00 0.00 0.00 37 1018.1
20260503190036 67 248 6.0 13.0 0.00 0.00 0.00 41 1018.3
20260503185016 66 248 7.0 16.0 0.00 0.00 0.00 40 1018.5
20260503184016 66 270 5.0 12.0 0.00 0.00 0.00 39 1018.6
20260503183016 66 248 5.0 14.0 0.00 0.00 0.00 40 1018.8
20260503182036 66 248 4.0 9.0 0.00 0.00 0.00 41 1019.0
20260503181016 66 248 5.0 12.0 0.00 0.00 0.00 41 1019.1